EHI
0 0 0 0 0 0 0 0 1 4 8 13 17 20 25 32 39 41 43 45 49 55 62 66 64 59 53 48 45 43 45 45 45 44 43 42 40 37 37 37 36 37 37 37
0 0 0 0 0 0 0 0 2 6 12 18 23 26 29 35 40 42 43 45 50 60 67 70 68 62 56 52 51 53 53 50 48 45 43 42 40 37 37 37 38 38 37 36
0 0 1 1 0 0 1 1 3 9 15 21 26 31 35 40 44 45 46 48 53 61 68 70 67 63 58 55 57 60 58 53 49 45 43 41 40 39 38 38 38 37 36 34
0 1 2 3 2 1 2 3 5 10 18 23 28 34 38 42 46 51 53 54 55 57 59 62 61 59 56 53 54 57 54 50 48 45 42 41 41 41 41 40 39 38 36 34
0 1 3 3 3 3 3 5 8 15 24 29 32 35 36 37 43 50 53 54 53 50 49 51 53 54 54 51 50 50 48 47 47 45 43 42 42 42 43 42 42 40 37 35
1 2 3 3 3 3 6 11 18 25 33 36 36 36 36 36 38 42 45 47 47 45 43 44 47 49 50 50 47 44 44 46 47 45 43 42 43 43 43 42 41 39 36 35
2 3 4 5 5 8 16 27 33 37 42 44 44 43 41 39 38 35 37 40 42 43 43 42 44 46 47 49 47 45 45 48 48 45 42 40 41 41 40 38 36 33 31 31
4 6 11 14 16 20 30 40 42 43 47 50 49 46 42 40 38 34 33 36 38 41 43 44 45 45 47 49 49 48 48 49 49 47 42 39 40 38 35 33 30 26 26 26
11 13 20 25 28 30 34 38 39 39 42 43 40 36 33 33 33 31 31 34 37 39 41 44 45 46 47 49 48 47 46 46 47 46 41 38 36 34 31 29 26 23 23 24
16 18 22 27 29 30 31 32 33 33 32 30 28 26 26 26 28 28 30 33 35 36 38 40 41 41 42 42 43 42 42 42 41 39 35 31 30 29 28 27 24 23 23 23
14 15 18 19 21 24 28 30 31 29 27 25 24 23 23 23 25 26 29 31 32 33 34 34 35 35 34 35 36 37 37 37 34 30 26 24 23 23 23 21 20 19 18 19
11 13 15 16 15 17 22 25 26 26 25 23 22 21 19 18 20 23 25 27 28 28 28 28 28 28 28 29 31 32 32 31 28 25 21 19 19 18 16 13 11 9 9 11
16 16 16 14 11 11 15 17 17 19 19 18 16 14 11 11 15 19 22 23 23 23 22 22 22 22 23 25 27 28 28 27 25 22 20 19 19 17 14 11 8 5 3 3
19 18 15 11 8 9 10 10 10 11 12 11 9 8 6 7 9 14 18 19 18 17 16 16 17 17 19 22 25 25 24 23 23 22 21 21 20 19 17 14 13 9 5 2
16 15 11 8 7 7 8 7 7 8 8 8 7 6 6 6 7 9 11 13 13 12 11 11 12 15 18 21 23 23 21 21 22 23 22 21 20 19 16 14 14 13 10 7
13 11 8 7 6 6 6 5 5 6 6 5 5 5 6 6 6 6 6 8 10 9 8 8 9 12 16 19 21 21 19 17 18 19 19 17 16 14 14 13 12 11 11 11
8 7 6 4 4 4 5 4 4 4 4 3 2 3 4 5 5 5 5 6 7 7 8 8 8 10 13 16 17 16 14 13 13 14 14 13 11 10 11 11 10 9 9 9
3 3 2 1 2 3 3 3 3 3 2 1 1 2 3 3 5 6 5 4 5 6 7 7 8 9 11 12 12 11 10 10 12 12 12 11 10 10 9 9 8 8 7 7
1 0 0 0 1 2 3 3 3 2 1 0 1 2 3 3 4 6 5 3 3 5 6 7 7 7 7 7 7 8 7 7 9 11 11 11 11 10 9 9 9 8 7 7
0 0 0 1 2 3 3 3 3 1 0 0 1 2 3 3 3 4 4 3 2 3 5 5 6 5 4 3 3 4 4 4 6 8 9 9 9 9 9 9 9 9 8 7
0 0 0 1 3 3 3 3 2 1 0 0 1 2 3 3 2 3 2 1 1 1 1 2 3 3 2 2 3 3 3 3 4 5 6 7 8 9 9 9 9 10 9 8
0 1 1 2 3 3 2 1 1 0 0 0 1 2 3 1 1 1 1 0 0 0 0 0 1 1 1 2 2 3 3 3 3 4 4 4 5 7 7 7 8 10 10 10
1 2 3 3 3 2 1 0 0 0 0 0 1 2 2 1 0 0 0 0 0 0 0 0 0 0 0 1 1 1 2 2 2 2 2 2 3 4 5 5 7 9 10 10
2 2 2 2 1 1 0 0 0 0 0 0 0 1 1 0 0 0 0 0 0 0 0 0 0 0 0 0 0 0 1 1 1 1 1 1 2 3 3 4 5 7 7 7
2 1 1 1 0 0 0 0 0 0 0 0 0 0 0 0 0 1 1 0 0 0 0 0 0 0 0 0 0 0 0 0 0 0 1 3 3 3 2 2 2 2 3 3
1 0 0 0 0 0 0 0 0 0 1 1 0 0 0 0 1 2 1 0 0 0 0 0 0 0 0 0 0 0 1 2 2 2 3 4 4 2 1 0 0 0 1 1
0 0 0 0 0 0 0 0 0 1 1 1 0 0 0 0 1 2 2 1 0 0 0 0 0 0 0 0 0 0 1 3 4 4 5 4 2 1 0 0 0 0 0 0
Wind_Speed
14 13 11 11 13 14 13 12 9 3 3 5 3 1 2 5 7 7 7 7 7 6 5 5 5 5 5 5 5 5 6 7 6 5 5 4 4 4 4 4 5 4 4 4
14 15 13 12 13 13 13 11 7 6 5 3 3 2 4 5 5 6 7 6 5 6 5 5 4 4 3 3 4 4 4 5 5 5 4 4 4 4 4 4 4 4 4 4
12 13 14 14 11 11 11 9 6 6 4 4 1 3 4 6 6 6 6 5 4 3 4 4 4 3 3 3 3 4 3 3 4 4 4 4 5 4 5 5 4 4 4 4
10 12 15 9 8 10 10 7 4 2 6 7 4 5 5 6 7 6 6 5 4 3 3 3 3 4 3 4 4 4 4 4 4 4 4 4 4 4 4 4 4 4 5 5
9 12 12 9 7 7 7 4 2 2 6 8 6 5 5 6 7 6 5 4 3 2 2 3 3 2 2 3 3 3 3 3 4 4 4 4 4 4 4 4 4 4 4 5
10 11 10 6 6 5 5 4 1 3 5 6 4 2 4 6 6 6 5 3 3 3 3 3 2 2 2 2 1 1 1 2 2 3 3 4 4 4 3 3 3 4 4 4
12 11 5 4 4 4 4 1 4 5 6 5 2 3 4 6 6 5 5 4 4 3 3 2 2 2 1 1 1 0 0 0 1 2 3 3 3 3 3 3 4 4 4 4
9 9 4 6 4 4 4 6 7 7 8 8 8 8 6 6 6 5 4 4 3 3 3 2 1 1 1 1 0 0 0 0 1 1 3 3 2 3 4 4 5 5 5 5
1 0 5 8 8 6 6 6 6 7 7 7 7 7 6 5 4 4 3 3 3 3 2 2 2 1 1 0 1 1 0 1 1 1 1 2 3 4 4 4 5 4 4 4
3 4 6 7 7 6 6 5 5 6 6 6 6 6 5 4 4 3 3 3 3 2 2 2 2 1 1 1 0 1 1 2 2 1 2 2 2 3 3 4 4 4 4 4
3 4 4 5 5 5 5 5 5 6 6 7 6 5 4 3 3 3 3 3 2 1 1 1 1 1 1 1 0 1 1 2 2 3 3 2 2 2 3 3 4 4 4 3
1 3 3 5 4 5 6 5 5 6 7 6 5 5 4 3 3 3 3 3 2 2 2 1 1 1 1 1 1 1 2 3 3 3 2 3 3 2 2 3 3 4 5 5
4 4 6 5 5 5 5 5 5 5 5 5 5 4 4 3 3 3 3 3 3 2 2 2 2 1 2 1 1 2 3 3 3 3 3 3 3 3 3 2 3 3 4 4
6 5 6 5 4 4 5 5 5 6 5 5 5 4 4 4 4 4 4 4 3 3 3 3 3 3 3 2 1 2 3 3 3 3 3 3 3 3 3 2 2 2 2 3
4 4 5 5 5 6 5 5 5 5 5 5 4 4 4 4 4 4 4 4 3 3 3 3 3 3 3 3 3 3 3 2 2 2 2 3 3 3 3 2 2 2 1 2
4 5 5 5 5 5 5 4 4 5 4 4 4 5 5 4 4 4 4 4 3 3 3 3 3 3 3 3 3 3 2 3 2 2 3 3 3 3 3 3 3 2 2 2
4 4 4 4 4 4 4 4 4 4 4 4 4 4 4 4 4 4 4 5 4 4 4 4 4 4 4 4 4 4 3 3 3 3 3 3 3 3 3 3 3 3 3 3
3 3 3 4 4 4 3 3 3 4 4 5 4 4 4 5 5 5 5 5 4 4 4 4 5 5 5 4 4 4 4 3 2 3 3 2 2 3 3 3 3 3 3 3
4 4 3 3 3 3 3 2 3 3 3 4 4 4 4 5 5 5 4 4 4 4 5 5 5 5 6 5 6 4 4 4 2 2 2 2 3 3 3 3 3 3 2 1
4 4 3 3 3 2 2 2 3 3 3 3 3 3 4 4 4 4 4 3 4 4 5 5 5 4 5 5 6 5 5 4 3 2 2 2 3 3 3 3 3 2 1 1
3 2 2 2 2 2 2 2 2 2 2 3 3 2 3 3 4 3 3 3 4 4 5 5 4 4 4 5 6 5 5 4 4 3 3 3 3 2 2 2 2 2 1 1
2 1 2 2 1 1 1 1 1 2 2 3 3 2 2 2 3 2 2 2 3 4 4 4 4 5 6 7 5 5 4 4 4 3 3 3 3 3 2 2 2 2 2 2
2 2 2 2 2 1 1 1 1 1 2 2 2 2 2 2 2 2 2 2 2 3 4 3 4 6 7 5 5 4 4 4 4 4 3 3 3 2 2 2 2 2 2 2
2 2 2 1 1 0 1 1 2 1 2 2 2 2 2 2 2 2 1 1 2 3 3 2 3 6 6 4 4 4 4 4 3 3 3 3 3 3 2 2 2 2 3 3
2 2 1 0 1 1 1 1 1 1 2 1 1 2 2 1 2 2 2 2 2 2 3 3 3 5 5 4 4 4 3 4 4 4 3 3 3 3 3 3 3 3 3 2
2 1 1 1 1 2 2 1 1 1 1 2 2 2 2 2 2 1 1 2 3 2 3 3 2 3 4 4 4 5 5 4 3 3 4 4 4 4 3 3 4 4 3 4
1 1 1 1 1 1 1 1 2 2 2 2 2 2 3 2 2 2 3 3 2 2 3 3 3 3 4 4 5 5 5 5 5 4 5 4 4 4 4 4 4 4 4 5
Wind_Direction
263 262 256 252 246 244 247 256 262 240 206 198 196 173 109 111 123 132 131 134 135 142 146 149 145 141 149 164 168 173 174 181 181 184 186 187 187 188 189 196 202 197 202 211
259 261 259 253 251 248 246 251 239 214 215 186 171 140 120 119 130 135 134 135 140 139 134 133 131 140 149 164 155 148 166 176 171 179 188 193 193 190 189 201 207 199 204 213
257 253 253 248 248 251 252 254 241 220 190 143 163 112 112 116 121 123 114 111 100 111 122 129 139 143 157 157 145 151 166 172 169 182 197 204 208 199 197 203 207 209 217 216
259 256 251 249 255 251 247 249 251 164 140 141 162 122 102 105 107 105 107 105 99 103 114 129 135 145 150 158 162 167 174 184 186 186 200 205 213 210 209 208 211 213 221 222
255 253 252 250 249 254 254 248 286 146 137 128 125 120 110 103 100 98 97 93 95 99 98 98 106 107 124 157 166 177 188 196 194 193 198 201 212 217 218 216 217 219 223 222
248 253 254 265 288 288 258 209 108 102 106 110 137 149 122 104 99 104 101 95 90 81 78 81 88 113 118 134 148 188 213 213 195 189 200 212 220 220 222 221 227 232 235 230
244 250 252 336 325 306 256 25 54 81 92 97 79 62 109 116 105 96 97 91 84 78 72 69 71 96 132 153 153 241 304 248 214 196 205 215 217 214 220 226 227 232 236 237
240 247 242 2 24 37 59 48 57 65 77 83 85 86 85 90 91 86 85 85 80 73 72 75 77 90 141 164 92 68 105 234 236 226 241 234 208 211 218 227 233 235 234 240
277 123 75 55 64 71 78 73 70 72 76 82 94 95 90 79 74 82 76 67 73 65 53 45 60 79 80 44 68 67 153 202 217 212 231 233 222 224 227 228 235 234 232 235
120 95 79 72 65 62 69 80 85 84 91 88 98 95 84 70 57 51 57 46 54 67 49 28 33 46 42 5 158 190 223 218 215 212 234 256 249 238 238 238 238 239 238 234
122 124 111 96 86 83 72 72 75 79 86 88 87 80 74 65 50 35 28 24 21 26 26 6 12 11 359 349 232 251 260 250 237 234 232 234 241 252 251 247 236 236 248 240
143 147 130 110 87 85 81 72 67 74 80 80 79 70 58 47 42 30 14 6 2 356 343 339 350 341 325 306 253 268 267 258 250 248 240 232 226 236 263 244 240 236 244 236
81 94 94 92 86 84 85 90 86 81 79 74 65 62 52 40 28 20 7 3 4 1 353 348 346 341 327 320 288 267 271 268 263 262 255 248 240 235 239 241 241 242 243 235
68 88 97 89 87 88 89 87 82 78 71 64 59 46 41 29 20 11 3 1 360 359 353 351 353 349 348 336 299 273 274 276 268 263 267 261 259 259 255 247 246 246 233 213
78 85 91 92 93 89 83 79 79 74 63 50 46 35 24 17 8 3 359 352 359 355 349 348 352 350 351 336 322 308 295 290 291 289 283 272 262 260 263 261 252 244 239 198
95 93 96 97 94 89 80 75 67 60 51 41 32 27 19 14 7 359 356 352 355 351 352 354 349 341 334 327 321 307 293 286 275 274 271 268 267 263 257 251 251 241 239 213
119 119 115 106 94 82 70 64 59 50 36 31 28 20 11 8 6 1 358 358 1 8 5 0 347 333 322 317 305 294 295 285 270 269 266 265 266 265 261 258 258 254 242 211
124 120 111 105 103 89 72 62 60 53 33 29 27 21 13 12 7 360 1 4 8 10 3 354 348 332 324 321 310 292 287 283 280 282 287 290 287 277 272 264 258 257 246 211
114 107 102 101 101 95 80 58 48 46 39 34 26 22 18 16 9 2 1 357 358 355 353 349 336 324 320 328 322 303 290 283 274 290 301 300 290 290 286 281 277 276 277 229
111 115 108 98 95 82 66 48 44 39 29 26 19 13 18 11 359 358 1 2 4 354 345 339 333 329 325 334 322 304 299 299 295 292 284 274 280 289 294 294 296 298 288 268
119 122 118 110 92 70 55 42 38 21 10 5 5 5 5 356 349 349 346 353 10 1 337 326 332 341 341 335 315 305 305 312 315 316 318 313 308 309 310 313 315 317 313 296
118 108 105 101 96 77 51 32 31 17 9 3 1 3 355 346 338 338 351 348 350 2 337 332 349 352 345 329 318 317 317 320 326 333 337 334 328 326 331 333 327 325 320 310
92 82 73 69 66 55 9 352 1 10 353 341 333 318 310 312 315 321 337 2 356 349 332 352 359 345 333 322 320 322 324 328 332 334 332 324 320 322 326 326 329 330 332 326
95 83 73 63 40 328 323 325 339 335 317 298 300 312 310 314 318 329 1 37 23 2 345 353 335 325 317 317 323 326 327 327 326 319 317 320 323 323 326 332 330 322 325 326
101 95 78 352 279 267 236 255 261 267 290 321 349 10 359 350 347 3 20 24 33 2 340 337 310 307 306 319 330 332 328 331 331 328 331 334 332 335 342 348 346 336 332 331
118 136 105 308 310 294 289 299 312 353 10 17 12 3 6 2 353 1 357 341 345 336 329 333 327 311 319 333 341 348 347 340 329 340 352 354 351 350 354 355 350 348 345 348
162 144 161 249 287 316 336 352 0 15 23 15 10 11 5 5 11 14 5 351 344 337 340 342 344 345 348 351 353 357 359 359 0 7 6 5 3 359 358 3 6 16 17 20